Weather History for KTBN - December, 2013

Change the Weather History Date:

Thursday, December 5, 2013

  Actual Average Record
Temperature  
Mean Temperature 25 °F -  
Max Temperature 33 °F 46 °F 71 °F (1998)
Min Temperature 17 °F 33 °F 15 °F (2002)
Degree Days  
Heating Degree Days 40    
Moisture  
Dew Point 19 °F    
Average Humidity 88    
Maximum Humidity 100    
Minimum Humidity 74    
Precipitation  
Precipitation 0.23 in - - ()
Snow  
Snow 0.00 in - - ()
Snow Depth 1.00 in    
Sea Level Pressure  
Sea Level Pressure 30.18 in    
Wind  
Wind Speed 8 mph (NNW)    
Max Wind Speed 13 mph    
Max Gust Speed 20 mph    
Visibility 6 miles    
Events Rain , Snow    
Averages and records for this station are not official NWS values.
T = Trace of Precipitation, MM = Missing Value Source: NWS Daily Summary

Daily Weather History Graph

Daily Weather History Graph

Search for Another Location

Airport or City:

Trip Planner

Search our weather history database for the weather conditions in past years. The results will help you decide how hot, cold, wet, or windy it might be!

Date:

Astronomy

Dec. 05, 2013 Rise Set
Actual Time 7:09 AM CST 4:49 PM CST
Civil Twilight 6:39 AM CST 5:18 PM CST
Nautical Twilight 6:07 AM CST 5:51 PM CST
Astronomical Twilight 5:35 AM CST 6:23 PM CST
Moon 9:30 AM CST (12/5) 8:08 PM CST (12/5)
Length of Visible Light 10h 38m
Length of Day
9h 40m
Waxing Crescent, 11% of the Moon is Illuminated
Dec 5
Waxing Crescent
Dec 9
First Quarter
Dec 17
Full
Dec 25
Last Quarter
Jan 1
New

Hourly Weather History & Observations

Time (CST) Temp. Windchill Dew Point Humidity Pressure Visibility Wind Dir Wind Speed Gust Speed Precip Events Conditions
12:58 AM 33.6 °F 26.2 °F 30.4 °F 88% 29.95 in 10.0 mi WNW 9.2 mph 19.6 mph N/A   Overcast
1:58 AM 30.7 °F 24.1 °F 27.3 °F 87% 29.99 in 10.0 mi Variable 6.9 mph 18.4 mph N/A   Overcast
2:58 AM 29.8 °F 20.9 °F 25.3 °F 83% 30.02 in 10.0 mi NW 10.4 mph 17.3 mph N/A   Overcast
3:03 AM 30.2 °F 21.3 °F 24.8 °F 80% 30.00 in 10.0 mi NW 10.4 mph 18.4 mph N/A   Overcast
3:58 AM 28.8 °F 20.2 °F 23.7 °F 81% 30.06 in 10.0 mi NW 9.2 mph - N/A   Overcast
4:08 AM 28.4 °F 19.1 °F 23.0 °F 80% 30.02 in 10.0 mi NW 10.4 mph 17.3 mph N/A   Overcast
4:27 AM 28.4 °F 19.1 °F 23.0 °F 80% 30.03 in 10.0 mi NNW 10.4 mph - N/A   Overcast
4:51 AM 28.4 °F 18.5 °F 23.0 °F 80% 30.05 in 10.0 mi NNW 11.5 mph - N/A   Overcast
4:56 AM 28.4 °F 19.1 °F 23.0 °F 80% 30.05 in 10.0 mi NNW 10.4 mph - N/A   Overcast
4:58 AM 27.7 °F 18.2 °F 22.3 °F 80% 30.08 in 10.0 mi NNW 10.4 mph - 0.00 in   Overcast
5:00 AM 28.4 °F 18.0 °F 23.0 °F 80% 30.05 in 10.0 mi NNW 12.7 mph - N/A   Overcast
5:16 AM 26.6 °F 16.2 °F 23.0 °F 86% 30.06 in 10.0 mi NNW 11.5 mph - N/A   Overcast
5:27 AM 26.6 °F 17.5 °F 23.0 °F 86% 30.06 in 10.0 mi NNW 9.2 mph - N/A   Overcast
5:40 AM 26.6 °F 17.5 °F 23.0 °F 86% 30.06 in 10.0 mi NW 9.2 mph - N/A   Overcast
5:48 AM 26.6 °F 19.1 °F 23.0 °F 86% 30.07 in 10.0 mi NW 6.9 mph - N/A   Overcast
5:58 AM 27.0 °F 16.7 °F 23.0 °F 85% 30.10 in 8.0 mi NNW 11.5 mph - 0.00 in   Overcast
6:23 AM 26.6 °F 17.5 °F 23.0 °F 86% 30.10 in 7.0 mi NNW 9.2 mph - N/A   Overcast
6:43 AM 26.6 °F 16.8 °F 21.2 °F 80% 30.11 in 10.0 mi WNW 10.4 mph - N/A   Overcast
6:58 AM 25.3 °F 16.7 °F 21.9 °F 87% 30.15 in 10.0 mi WNW 8.1 mph - 0.02 in   Overcast
7:18 AM 24.8 °F 14.6 °F 21.2 °F 86% 30.11 in 10.0 mi NW 10.4 mph 17.3 mph N/A   Light Freezing Rain
7:23 AM 24.8 °F 14.6 °F 21.2 °F 86% 30.13 in 10.0 mi NW 10.4 mph 17.3 mph N/A   Light Freezing Rain
7:27 AM 24.8 °F 14.6 °F 21.2 °F 86% 30.12 in 10.0 mi NNW 10.4 mph 17.3 mph N/A   Overcast
7:32 AM 24.8 °F 14.0 °F 21.2 °F 86% 30.13 in 10.0 mi NW 11.5 mph - N/A   Overcast
7:47 AM 24.8 °F 15.3 °F 19.4 °F 80% 30.13 in 10.0 mi NW 9.2 mph - N/A   Overcast
7:58 AM 24.6 °F 13.8 °F 19.6 °F 81% 30.18 in 10.0 mi North 11.5 mph - 0.00 in   Overcast
8:58 AM 23.2 °F 12.0 °F 16.9 °F 77% 30.20 in 10.0 mi NW 11.5 mph 18.4 mph N/A   Mostly Cloudy
9:58 AM 23.0 °F 12.4 °F 16.5 °F 76% 30.20 in 10.0 mi NW 10.4 mph - N/A   Mostly Cloudy
10:00 AM 23.0 °F 12.4 °F 15.8 °F 74% 30.15 in 10.0 mi NW 10.4 mph - N/A   Mostly Cloudy
10:20 AM 23.0 °F 15.8 °F 17.6 °F 80% 30.15 in 10.0 mi Variable 5.8 mph - N/A   Mostly Cloudy
10:26 AM 23.0 °F 14.7 °F 17.6 °F 80% 30.16 in 10.0 mi NW 6.9 mph - N/A   Light Freezing Rain
10:37 AM 23.0 °F 13.9 °F 17.6 °F 80% 30.18 in 10.0 mi NW 8.1 mph - N/A   Mostly Cloudy
10:58 AM 23.2 °F 13.3 °F 16.7 °F 76% 30.21 in 10.0 mi NNW 9.2 mph 16.1 mph 0.00 in   Mostly Cloudy
11:03 AM 23.0 °F 13.9 °F 17.6 °F 80% 30.16 in 10.0 mi WNW 8.1 mph - N/A   Mostly Cloudy
11:05 AM 23.0 °F 13.9 °F 15.8 °F 74% 30.15 in 10.0 mi NNW 8.1 mph - N/A Rain Light Freezing Rain
11:42 AM 23.0 °F 13.9 °F 17.6 °F 80% 30.17 in 6.0 mi NW 8.1 mph - N/A   Light Ice Pellets
11:58 AM 22.5 °F 14.1 °F 18.0 °F 83% 30.24 in 8.0 mi NW 6.9 mph - 0.04 in   Light Ice Pellets
12:58 PM 22.6 °F 14.3 °F 17.2 °F 80% 30.22 in 10.0 mi NW 6.9 mph - 0.01 in   Light Ice Pellets
1:38 PM 23.0 °F 13.1 °F 15.8 °F 74% 30.16 in 10.0 mi North 9.2 mph - N/A   Scattered Clouds
1:58 PM 22.6 °F 14.3 °F 15.6 °F 74% 30.22 in 10.0 mi NNW 6.9 mph - 0.00 in   Partly Cloudy
2:17 PM 23.0 °F 13.9 °F 15.8 °F 74% 30.16 in 10.0 mi North 8.1 mph - N/A Snow Light Snow
2:27 PM 23.0 °F 13.9 °F 15.8 °F 74% 30.16 in 3.0 mi NNW 8.1 mph - N/A Snow Light Snow
2:28 PM 23.0 °F 13.9 °F 15.8 °F 74% 30.16 in 5.0 mi NNW 8.1 mph - N/A Snow Light Snow
2:58 PM 21.2 °F 14.9 °F 17.6 °F 86% 30.20 in 3.0 mi North 4.6 mph - 0.00 in Snow Light Snow
3:13 PM 21.2 °F 16.4 °F 17.6 °F 86% 30.16 in 2.0 mi NW 3.5 mph - N/A Snow Light Snow
3:33 PM 21.2 °F 14.9 °F 17.6 °F 86% 30.18 in 3.0 mi NNW 4.6 mph - N/A Snow Light Snow
3:43 PM 21.2 °F 14.9 °F 17.6 °F 86% 30.20 in 2.5 mi NNW 4.6 mph - N/A Snow Light Snow
3:48 PM 21.2 °F 13.6 °F 17.6 °F 86% 30.20 in 3.0 mi North 5.8 mph - N/A Snow Light Snow
3:58 PM 21.7 °F 12.3 °F 16.9 °F 82% 30.25 in 5.0 mi North 8.1 mph - 0.00 in Snow Light Snow
4:38 PM 21.2 °F - 17.6 °F 86% 30.21 in 2.0 mi NNW 2.3 mph - N/A Snow Light Snow
4:43 PM 21.2 °F 13.6 °F 17.6 °F 86% 30.22 in 1.2 mi NNW 5.8 mph - N/A Snow Light Snow
4:48 PM 21.2 °F 13.6 °F 17.6 °F 86% 30.21 in 1.0 mi NNW 5.8 mph - N/A Snow Light Snow
4:58 PM 20.8 °F 12.1 °F 18.9 °F 92% 30.26 in 1.0 mi North 6.9 mph - 0.01 in Snow Light Snow
5:03 PM 21.2 °F 14.9 °F 19.4 °F 93% 30.20 in 1.8 mi North 4.6 mph - N/A Snow Light Snow
5:08 PM 21.2 °F 14.9 °F 19.4 °F 93% 30.20 in 2.0 mi NNW 4.6 mph - N/A Snow Light Snow
5:13 PM 21.2 °F 12.6 °F 19.4 °F 93% 30.20 in 1.2 mi North 6.9 mph - N/A Snow Light Snow
5:28 PM 19.4 °F 10.4 °F 19.4 °F 100% 30.18 in 2.0 mi North 6.9 mph - N/A Snow Light Snow
5:43 PM 19.4 °F 11.5 °F 19.4 °F 100% 30.23 in 2.5 mi NW 5.8 mph - N/A Snow Light Snow
5:53 PM 19.4 °F 11.5 °F 19.4 °F 100% 30.21 in 3.0 mi North 5.8 mph - N/A Snow Light Snow
5:58 PM 20.1 °F 13.6 °F 18.9 °F 95% 30.28 in 5.0 mi NNW 4.6 mph - 0.03 in Snow Light Snow
5:59 PM 19.4 °F 12.8 °F 19.4 °F 100% 30.23 in 6.0 mi NNW 4.6 mph - N/A Snow Light Snow
6:14 PM 19.4 °F 11.5 °F 19.4 °F 100% 30.21 in 5.0 mi NNW 5.8 mph - N/A Snow Light Snow
6:29 PM 19.4 °F 8.6 °F 19.4 °F 100% 30.22 in 3.0 mi NNW 9.2 mph - N/A Snow Light Snow
6:34 PM 19.4 °F 9.5 °F 19.4 °F 100% 30.22 in 1.8 mi NNW 8.1 mph - N/A Snow Light Snow
6:39 PM 19.4 °F 8.6 °F 19.4 °F 100% 30.21 in 1.0 mi NNW 9.2 mph - N/A Snow Light Snow
6:44 PM 19.4 °F 11.5 °F 19.4 °F 100% 30.20 in 1.0 mi North 5.8 mph - N/A Snow Light Snow
6:49 PM 19.4 °F 9.5 °F 19.4 °F 100% 30.21 in 1.2 mi NNW 8.1 mph - N/A Snow Light Snow
6:58 PM 19.4 °F 14.3 °F 17.6 °F 93% 30.29 in 2.0 mi NW 3.5 mph - 0.03 in Snow Light Snow
7:03 PM 19.4 °F 12.8 °F 17.6 °F 93% 30.24 in 2.0 mi NW 4.6 mph - N/A Snow Light Snow
7:13 PM 19.4 °F 11.5 °F 17.6 °F 93% 30.22 in 1.8 mi NNW 5.8 mph - N/A Snow Light Snow
7:43 PM 19.4 °F 12.8 °F 17.6 °F 93% 30.22 in 1.0 mi NNW 4.6 mph - N/A Snow Light Snow
7:53 PM 19.4 °F 10.4 °F 17.6 °F 93% 30.22 in 1.2 mi NNW 6.9 mph - N/A Snow Light Snow
7:58 PM 19.0 °F 9.0 °F 18.1 °F 96% 30.28 in 1.2 mi NNW 8.1 mph - 0.04 in Snow Light Snow
8:13 PM 19.4 °F 11.5 °F 17.6 °F 93% 30.24 in 2.0 mi NW 5.8 mph - N/A Snow Light Snow
8:18 PM 19.4 °F 10.4 °F 17.6 °F 93% 30.24 in 1.8 mi NNW 6.9 mph - N/A Snow Light Snow
8:43 PM 19.4 °F 10.4 °F 17.6 °F 93% 30.25 in 1.5 mi NNW 6.9 mph - N/A Snow Light Snow
8:58 PM 18.7 °F 7.8 °F 18.0 °F 97% 30.28 in 2.0 mi NNW 9.2 mph - 0.03 in Snow Light Snow
9:03 PM 19.4 °F 10.4 °F 17.6 °F 93% 30.22 in 1.8 mi NNW 6.9 mph - N/A Snow Light Snow
9:18 PM 17.6 °F 7.3 °F 17.6 °F 100% 30.23 in 2.0 mi NNW 8.1 mph - N/A Snow Light Snow
9:28 PM 17.6 °F 7.3 °F 17.6 °F 100% 30.23 in 3.0 mi NNW 8.1 mph - N/A Snow Light Snow
9:38 PM 17.6 °F 6.4 °F 17.6 °F 100% 30.23 in 5.0 mi NNW 9.2 mph - N/A Snow Light Snow
9:58 PM 18.5 °F 8.4 °F 17.2 °F 95% 30.28 in 10.0 mi North 8.1 mph - 0.02 in Snow Light Snow
10:08 PM 17.6 °F 8.2 °F 17.6 °F 100% 30.24 in 10.0 mi NNW 6.9 mph - N/A   Mostly Cloudy
10:38 PM 17.6 °F 8.2 °F 15.8 °F 93% 30.24 in 10.0 mi North 6.9 mph - N/A Snow Light Snow
10:43 PM 19.4 °F 10.4 °F 17.6 °F 93% 30.25 in 10.0 mi North 6.9 mph - N/A Snow Light Snow
10:48 PM 19.4 °F 10.4 °F 17.6 °F 93% 30.25 in 9.0 mi North 6.9 mph - N/A Snow Light Snow
10:58 PM 18.5 °F 7.5 °F 16.5 °F 92% 30.29 in 6.0 mi North 9.2 mph - 0.00 in Snow Light Snow
11:18 PM 17.6 °F 7.3 °F 15.8 °F 93% 30.23 in 10.0 mi North 8.1 mph - N/A Snow Light Snow
11:43 PM 17.6 °F 8.2 °F 15.8 °F 93% 30.25 in 7.0 mi North 6.9 mph - N/A Snow Light Snow
11:58 PM 18.5 °F 8.4 °F 16.5 °F 92% 30.32 in 6.0 mi NNW 8.1 mph - 0.00 in Snow Light Snow